Zurück zum Katalog

STARLINK-35566

AktivKommunikationVLEO
NORAD 66061·PAYLOAD·🇺🇸 United States

Gestartet Oct 19, 2025 von Cape Canaveral Space Force Station

Loading…

Nächste Überflüge (nächste 24 Stunden)

TLE

AktuellSource: CelesTrak SupGP

Epoche: Sep 15, 2026, 03:47 UTC

1 66061C 25235D   26258.15812500 -.00025029  00000+0 -73948-3 0  2582
2 66061  53.1599  84.5558 0001191  87.0575 110.7906 15.34403669    18

Verfolge STARLINK-35566 in Echtzeit mit AllMySat

Download on the App Store